Notices

What's New in latest Release from April 7th, 2021:

- Updated Glossary, including Speed of Maximum Gust, and Total Hourly Precipitation

- Updated national and regional climate services offices contacts and prices information

- Addition of station inventory lists for 1981-2010, 1971-2000, and 1961-1990 Normals.

If you haven't already, please take our survey and provide feedback about our website: https://eccc.sondage-survey.ca/f/LanguageSelection.aspx?s=442ca660-fcf1-47c0-95a9-59707d6fd709

Hourly Data Report for October 06, 2019

PINAWA
MANITOBA
Current Station Operator: ECCC - MSC

50°10'38.020" N
96°03'53.000" W
268.00 m
503B1ER
71448
WEA

Download Data

Hourly Data (October 2019)
Hourly Data Report for October 6, 2019
TIME
LST
Temp Definition
°C
Dew Point Definition
°C
Rel Hum Definition
%
Precip. Amount Definition
mm

Wind Dir Definition
10's deg

Wind Spd Definition
km/h
Visibility Definition
km
Stn Press Definition
kPa
Hmdx Definition


Wind Chill Definition


Weather Definition


00:00 5.9 LegendMM LegendMM LegendMM 28 9   96.75     LegendNANA
01:00 6.7 LegendMM LegendMM LegendMM 27 12   96.77     LegendNANA
02:00 6.2 LegendMM LegendMM LegendMM 28 8   96.82     LegendNANA
03:00 6.0 LegendMM LegendMM LegendMM 27 7   96.86     LegendNANA
04:00 5.5 LegendMM LegendMM LegendMM 24 4   96.89     LegendNANA
05:00 5.9 LegendMM LegendMM LegendMM 24 4   96.90     LegendNANA
06:00 6.2 LegendMM LegendMM LegendMM 26 5   96.91     LegendNANA
07:00 7.1 LegendMM LegendMM LegendMM 27 10   96.91     LegendNANA
08:00 7.7 LegendMM LegendMM LegendMM 28 16   96.95     LegendNANA
09:00 8.3 LegendMM LegendMM LegendMM 28 15   97.02     LegendNANA
10:00 8.7 LegendMM LegendMM LegendMM 28 16   97.11     LegendNANA
11:00 10.2 LegendMM LegendMM LegendMM 29 18   97.16     LegendNANA
12:00 10.3 LegendMM LegendMM LegendMM 28 14   97.19     LegendNANA
13:00 8.9 LegendMM LegendMM LegendMM 29 19   97.24     LegendNANA
14:00 9.8 LegendMM LegendMM LegendMM 28 14   97.27     LegendNANA
15:00 9.9 LegendMM LegendMM LegendMM 28 14   97.31     LegendNANA
16:00 10.3 LegendMM LegendMM LegendMM 28 17   97.36     LegendNANA
17:00 8.0 LegendMM LegendMM LegendMM 27 10   97.41     LegendNANA
18:00 7.9 LegendMM LegendMM LegendMM 28 9   97.54     LegendNANA
19:00 7.8 LegendMM LegendMM LegendMM 29 11   97.61     LegendNANA
20:00 6.7 LegendMM LegendMM LegendMM 28 8   97.70     LegendNANA
21:00 6.0 LegendMM LegendMM LegendMM 27 6   97.75     LegendNANA
22:00 5.4 LegendMM LegendMM LegendMM 26 7   97.84     LegendNANA
23:00 5.4 LegendMM LegendMM LegendMM 28 10   97.91     LegendNANA

Notes on Data Quality.

Legend

  • E = Estimated
  • M = Missing
  • NA = Not Available*
  • [empty] = Indicates an unobserved value
Date modified: